DW7325 Weather Reports


Display with metric or nautical units.
time (UTC)temp
F
wind
direction
speed
MPH
gust
MPH
rain 1hr
in
rain 24hr
in
rain mn
in
humidity
%
barometer
mb
20260901162921 90 198 0.0 4.0 0.00 0.00 0.00 66 1015.2
20260901162814 91 237 0.0 4.0 0.00 0.00 0.00 66 1015.3
20260901162449 91 183 0.0 4.0 0.00 0.00 0.00 67 1015.4
20260901162345 91 234 0.0 4.0 0.00 0.00 0.00 66 1015.3
20260901162019 91 192 0.0 4.0 0.00 0.00 0.00 64 1015.3
20260901161913 90 229 0.0 4.0 0.00 0.00 0.00 65 1015.3
20260901161807 90 150 0.0 4.0 0.00 0.00 0.00 64 1015.3
20260901161706 90 155 0.0 4.0 0.00 0.00 0.00 63 1015.3
20260901161603 90 210 0.0 4.0 0.00 0.00 0.00 68 1015.4
20260901161235 89 237 0.0 3.0 0.00 0.00 0.00 70 1015.4
20260901161132 89 41 0.0 3.0 0.00 0.00 0.00 71 1015.4
20260901161027 89 271 0.0 3.0 0.00 0.00 0.00 71 1015.4
20260901160921 89 107 0.0 3.0 0.00 0.00 0.00 75 1015.5
20260901160819 88 31 0.0 3.0 0.00 0.00 0.00 73 1015.5
20260901160715 88 256 0.0 3.0 0.00 0.00 0.00 73 1015.5
20260901160609 88 84 0.0 3.0 0.00 0.00 0.00 72 1015.5
20260901160503 88 126 0.0 1.0 0.00 0.00 0.00 72 1015.5
20260901160356 88 60 0.0 2.0 0.00 0.00 0.00 72 1015.6
20260901160248 88 103 0.0 2.0 0.00 0.00 0.00 72 1015.6
20260901155925 89 219 0.0 2.0 0.00 0.00 0.00 69 1015.6
20260901155822 89 219 0.0 2.0 0.00 0.00 0.00 68 1015.6
20260901155717 89 209 0.0 2.0 0.00 0.00 0.00 68 1015.6
20260901155611 89 119 0.0 2.0 0.00 0.00 0.00 69 1015.6
20260901155506 89 119 0.0 2.0 0.00 0.00 0.00 69 1015.7
20260901155141 90 202 0.0 2.0 0.00 0.00 0.00 67 1015.7
20260901155039 90 257 0.0 2.0 0.00 0.00 0.00 67 1015.7
20260901154934 90 183 0.0 2.0 0.00 0.00 0.00 69 1015.7
20260901154828 90 42 0.0 2.0 0.00 0.00 0.00 68 1015.7
20260901154724 91 73 0.0 2.0 0.00 0.00 0.00 68 1015.7
20260901154617 91 70 0.0 2.0 0.00 0.00 0.00 67 1015.7
20260901154511 92 32 0.0 2.0 0.00 0.00 0.00 65 1015.7
20260901154405 92 206 0.0 2.0 0.00 0.00 0.00 66 1015.8
20260901154258 92 103 0.0 2.0 0.00 0.00 0.00 68 1015.7
20260901154152 92 30 0.0 2.0 0.00 0.00 0.00 68 1015.7
20260901154050 92 52 0.0 2.0 0.00 0.00 0.00 68 1015.8
20260901153943 92 186 0.0 2.0 0.00 0.00 0.00 68 1015.8
20260901153836 92 250 0.0 2.0 0.00 0.00 0.00 68 1015.8
20260901153506 91 44 0.0 2.0 0.00 0.00 0.00 65 1015.8
20260901153403 91 311 0.0 2.0 0.00 0.00 0.00 68 1015.8
20260901153301 91 190 0.0 2.0 0.00 0.00 0.00 67 1015.8
20260901153153 91 269 0.0 2.0 0.00 0.00 0.00 67 1015.8
20260901153050 91 338 0.0 2.0 0.00 0.00 0.00 67 1015.8
20260901152947 91 96 0.0 2.0 0.00 0.00 0.00 66 1015.8
20260901152627 91 132 0.0 2.0 0.00 0.00 0.00 68 1015.9
20260901152525 91 221 0.0 2.0 0.00 0.00 0.00 68 1015.9
20260901152417 91 144 0.0 2.0 0.00 0.00 0.00 67 1015.9
20260901152314 91 157 0.0 1.0 0.00 0.00 0.00 68 1015.9
20260901152208 91 212 0.0 1.0 0.00 0.00 0.00 67 1015.9
20260901152103 91 212 0.0 1.0 0.00 0.00 0.00 68 1016.0
20260901151958 91 157 0.0 1.0 0.00 0.00 0.00 68 1015.9
20260901151853 91 220 0.0 1.0 0.00 0.00 0.00 68 1016.0
20260901151749 91 229 0.0 1.0 0.00 0.00 0.00 68 1016.0
20260901151643 90 250 0.0 1.0 0.00 0.00 0.00 69 1016.0
20260901151317 90 105 0.0 3.0 0.00 0.00 0.00 69 1016.0
20260901151211 90 195 0.0 3.0 0.00 0.00 0.00 70 1016.0
20260901151106 90 195 0.0 3.0 0.00 0.00 0.00 71 1016.1
20260901150741 90 0 0.0 3.0 0.00 0.00 0.00 70 1016.1
20260901150412 90 252 0.0 3.0 0.00 0.00 0.00 69 1016.2
20260901150307 90 120 0.0 3.0 0.00 0.00 0.00 70 1016.1
20260901150203 90 116 0.0 3.0 0.00 0.00 0.00 68 1016.2
20260901150100 90 120 0.0 3.0 0.00 0.00 0.00 67 1016.2
20260901145955 89 252 0.0 3.0 0.00 0.00 0.00 70 1016.2
20260901145632 89 78 0.0 3.0 0.00 0.00 0.00 71 1016.1
20260901145043 88 153 0.0 2.0 0.00 0.00 0.00 73 1016.1
20260901144937 88 217 0.0 2.0 0.00 0.00 0.00 74 1016.1
20260901144834 88 109 0.0 2.0 0.00 0.00 0.00 73 1016.1
20260901144727 88 233 0.0 2.0 0.00 0.00 0.00 75 1016.1
20260901144626 88 233 0.0 2.0 0.00 0.00 0.00 74 1016.1
20260901144521 88 173 0.0 2.0 0.00 0.00 0.00 74 1016.1
20260901144413 88 173 0.0 2.0 0.00 0.00 0.00 73 1016.1
20260901144306 87 225 0.0 2.0 0.00 0.00 0.00 74 1016.1
20260901144159 87 225 0.0 2.0 0.00 0.00 0.00 75 1016.2
20260901144053 87 225 0.0 2.0 0.00 0.00 0.00 74 1016.2
20260901143945 87 225 0.0 2.0 0.00 0.00 0.00 75 1016.2
20260901143841 86 227 0.0 2.0 0.00 0.00 0.00 74 1016.2
20260901143738 86 150 0.0 2.0 0.00 0.00 0.00 75 1016.2
20260901143409 86 256 0.0 2.0 0.00 0.00 0.00 75 1016.2
20260901143303 86 179 0.0 2.0 0.00 0.00 0.00 76 1016.2
20260901143157 86 179 0.0 2.0 0.00 0.00 0.00 77 1016.2
20260901143049 86 163 0.0 2.0 0.00 0.00 0.00 78 1016.2
20260901142943 86 157 0.0 2.0 0.00 0.00 0.00 78 1016.2
20260901142838 86 199 0.0 2.0 0.00 0.00 0.00 78 1016.3
20260901142734 86 227 0.0 2.0 0.00 0.00 0.00 77 1016.3
20260901142628 86 227 0.0 2.0 0.00 0.00 0.00 77 1016.3
20260901142522 86 227 0.0 2.0 0.00 0.00 0.00 77 1016.2
20260901142158 85 227 0.0 2.0 0.00 0.00 0.00 78 1016.3
20260901142053 85 227 0.0 2.0 0.00 0.00 0.00 79 1016.2
20260901141946 84 227 0.0 2.0 0.00 0.00 0.00 79 1016.3
20260901141843 84 263 0.0 2.0 0.00 0.00 0.00 79 1016.2
20260901141737 84 185 0.0 2.0 0.00 0.00 0.00 80 1016.2
20260901141634 84 134 0.0 2.0 0.00 0.00 0.00 81 1016.2
20260901141528 84 242 0.0 2.0 0.00 0.00 0.00 83 1016.2
20260901141423 84 242 0.0 2.0 0.00 0.00 0.00 84 1016.2
20260901141318 84 320 0.0 2.0 0.00 0.00 0.00 84 1016.2
20260901140952 83 122 0.0 3.0 0.00 0.00 0.00 85 1016.2
20260901140623 83 11 0.0 3.0 0.00 0.00 0.00 85 1016.2
20260901140517 83 11 0.0 3.0 0.00 0.00 0.00 84 1016.2
20260901140156 82 235 0.0 3.0 0.00 0.00 0.00 85 1016.2
20260901140051 82 235 0.0 3.0 0.00 0.00 0.00 85 1016.2
20260901135949 82 235 0.0 3.0 0.00 0.00 0.00 85 1016.2
20260901135841 82 235 0.0 3.0 0.00 0.00 0.00 86 1016.2
20260901135738 82 254 0.0 3.0 0.00 0.00 0.00 85 1016.1
20260901135413 81 215 0.0 3.0 0.00 0.00 0.00 86 1016.2
20260901135305 81 272 0.0 3.0 0.00 0.00 0.00 87 1016.2
20260901135200 81 217 0.0 2.0 0.00 0.00 0.00 87 1016.3
20260901135057 80 220 0.0 2.0 0.00 0.00 0.00 88 1016.2
20260901134955 80 203 0.0 2.0 0.00 0.00 0.00 89 1016.2
20260901134853 80 207 0.0 2.0 0.00 0.00 0.00 90 1016.2
20260901134748 80 202 0.0 2.0 0.00 0.00 0.00 90 1016.2
20260901134424 79 191 0.0 2.0 0.00 0.00 0.00 92 1016.2
20260901134319 79 191 0.0 2.0 0.00 0.00 0.00 92 1016.2
20260901134212 79 152 0.0 2.0 0.00 0.00 0.00 92 1016.2
20260901134104 79 159 0.0 2.0 0.00 0.00 0.00 92 1016.2
20260901134001 79 159 0.0 2.0 0.00 0.00 0.00 92 1016.2
20260901133858 79 159 0.0 2.0 0.00 0.00 0.00 93 1016.2
20260901133752 78 159 0.0 2.0 0.00 0.00 0.00 93 1016.2
20260901133646 78 199 0.0 2.0 0.00 0.00 0.00 94 1016.2
20260901133545 78 244 0.0 2.0 0.00 0.00 0.00 94 1016.2
20260901132954 77 192 0.0 2.0 0.00 0.00 0.00 95 1016.2
20260901132847 77 191 0.0 2.0 0.00 0.00 0.00 96 1016.2
20260901132743 77 191 0.0 2.0 0.00 0.00 0.00 96 1016.2
20260901132636 77 191 0.0 2.0 0.00 0.00 0.00 96 1016.3
20260901132529 77 205 0.0 2.0 0.00 0.00 0.00 96 1016.3
20260901132424 77 205 0.0 2.0 0.00 0.00 0.00 96 1016.3
20260901132320 76 250 0.0 0.0 0.00 0.00 0.00 96 1016.3
20260901132216 76 250 0.0 1.0 0.00 0.00 0.00 96 1016.3
20260901131853 76 206 0.0 1.0 0.00 0.00 0.00 96 1016.3
20260901131749 76 206 0.0 1.0 0.00 0.00 0.00 96 1016.3
20260901131646 76 206 0.0 0.0 0.00 0.00 0.00 96 1016.3
20260901131544 76 234 0.0 0.0 0.00 0.00 0.00 96 1016.3
20260901131437 75 234 0.0 0.0 0.00 0.00 0.00 96 1016.4
20260901131333 75 234 0.0 0.0 0.00 0.00 0.00 96 1016.4
20260901131227 75 234 0.0 0.0 0.00 0.00 0.00 97 1016.4
20260901131122 75 234 0.0 0.0 0.00 0.00 0.00 97 1016.4
20260901130755 75 234 0.0 0.0 0.00 0.00 0.00 96 1016.5
20260901130651 75 234 0.0 0.0 0.00 0.00 0.00 97 1016.5
20260901130549 75 234 0.0 0.0 0.00 0.00 0.00 97 1016.5
20260901130443 75 234 0.0 0.0 0.00 0.00 0.00 97 1016.5
20260901130339 75 234 0.0 0.0 0.00 0.00 0.00 97 1016.5
20260901130013 75 283 0.0 0.0 0.00 0.00 0.00 97 1016.5
20260901125911 74 283 0.0 0.0 0.00 0.00 0.00 97 1016.5
20260901125806 74 283 0.0 0.0 0.00 0.00 0.00 97 1016.5
20260901125701 74 283 0.0 0.0 0.00 0.00 0.00 96 1016.5
20260901124636 74 209 0.0 0.0 0.00 0.00 0.00 96 1016.5
20260901124309 74 209 0.0 0.0 0.00 0.00 0.00 96 1016.5
20260901124205 73 209 0.0 0.0 0.00 0.00 0.00 96 1016.5
20260901124059 73 209 0.0 0.0 0.00 0.00 0.00 96 1016.5
20260901123955 73 209 0.0 0.0 0.00 0.00 0.00 96 1016.5
20260901123630 73 209 0.0 0.0 0.00 0.00 0.00 96 1016.6
20260901123524 73 209 0.0 0.0 0.00 0.00 0.00 96 1016.6
20260901123417 73 209 0.0 0.0 0.00 0.00 0.00 96 1016.6
20260901123314 73 209 0.0 0.0 0.00 0.00 0.00 96 1016.6
20260901123208 73 209 0.0 0.0 0.00 0.00 0.00 96 1016.6
20260901123101 73 209 0.0 0.0 0.00 0.00 0.00 96 1016.6
20260901122952 73 209 0.0 0.0 0.00 0.00 0.00 96 1016.6
20260901122631 73 209 0.0 0.0 0.00 0.00 0.00 96 1016.6
20260901122524 73 209 0.0 0.0 0.00 0.00 0.00 96 1016.5
20260901121940 73 209 0.0 0.0 0.00 0.00 0.00 96 1016.5
20260901121837 73 209 0.0 0.0 0.00 0.00 0.00 96 1016.5
20260901121733 73 209 0.0 0.0 0.00 0.00 0.00 96 1016.6
20260901121626 73 209 0.0 0.0 0.00 0.00 0.00 96 1016.5
20260901121522 73 209 0.0 1.0 0.00 0.00 0.00 96 1016.5
20260901121418 73 209 0.0 1.0 0.00 0.00 0.00 96 1016.5
20260901121316 73 209 0.0 1.0 0.00 0.00 0.00 96 1016.5
20260901121209 73 209 0.0 1.0 0.00 0.00 0.00 96 1016.5
20260901121104 73 209 0.0 0.0 0.00 0.00 0.00 96 1016.5
20260901120957 73 209 0.0 0.0 0.00 0.00 0.00 96 1016.5
20260901120853 73 209 0.0 0.0 0.00 0.00 0.00 96 1016.5
20260901120745 73 209 0.0 0.0 0.00 0.00 0.00 96 1016.6
20260901120641 73 209 0.0 0.0 0.00 0.00 0.00 96 1016.6
20260901120535 73 209 0.0 0.0 0.00 0.00 0.00 96 1016.5
20260901120208 73 209 0.0 0.0 0.00 0.00 0.00 96 1016.5
20260901120103 73 209 0.0 0.0 0.00 0.00 0.00 96 1016.4
20260901115957 73 209 0.0 0.0 0.00 0.00 0.00 96 1016.4
20260901115854 73 209 0.0 0.0 0.00 0.00 0.00 96 1016.4
20260901115748 73 209 0.0 0.0 0.00 0.00 0.00 96 1016.4
20260901115425 73 209 0.0 0.0 0.00 0.00 0.00 96 1016.4
20260901115101 73 209 0.0 0.0 0.00 0.00 0.00 96 1016.4
20260901114955 73 209 0.0 0.0 0.00 0.00 0.00 96 1016.3
20260901114850 73 209 0.0 0.0 0.00 0.00 0.00 96 1016.3
20260901114746 73 209 0.0 0.0 0.00 0.00 0.00 96 1016.3
20260901114641 73 209 0.0 0.0 0.00 0.00 0.00 96 1016.3
20260901114534 73 209 0.0 0.0 0.00 0.00 0.00 96 1016.3
20260901114209 73 209 0.0 0.0 0.00 0.00 0.00 96 1016.3
20260901114101 73 209 0.0 0.0 0.00 0.00 0.00 96 1016.2
20260901113958 73 209 0.0 0.0 0.00 0.00 0.00 96 1016.3
20260901113851 73 209 0.0 0.0 0.00 0.00 0.00 96 1016.2
20260901113750 73 209 0.0 0.0 0.00 0.00 0.00 96 1016.2
20260901113644 73 209 0.0 0.0 0.00 0.00 0.00 96 1016.2
20260901113539 73 209 0.0 1.0 0.00 0.00 0.00 96 1016.2
20260901113435 72 209 0.0 1.0 0.00 0.00 0.00 96 1016.2
20260901113330 73 209 0.0 1.0 0.00 0.00 0.00 96 1016.1
20260901113225 72 209 0.0 1.0 0.00 0.00 0.00 96 1016.1
20260901113121 72 209 0.0 1.0 0.00 0.00 0.00 96 1016.0
20260901113015 72 209 0.0 1.0 0.00 0.00 0.00 96 1016.0
20260901112909 72 209 0.0 1.0 0.00 0.00 0.00 95 1016.0
20260901112806 72 209 0.0 1.0 0.00 0.00 0.00 95 1016.0
20260901112703 72 169 0.0 1.0 0.00 0.00 0.00 95 1016.0
20260901112600 72 169 0.0 1.0 0.00 0.00 0.00 95 1016.0
20260901112456 72 169 0.0 1.0 0.00 0.00 0.00 95 1016.0
20260901112351 72 169 0.0 1.0 0.00 0.00 0.00 95 1016.0
20260901112249 72 169 0.0 0.0 0.00 0.00 0.00 95 1016.0
20260901111923 72 169 0.0 0.0 0.00 0.00 0.00 95 1016.0
20260901111821 72 169 0.0 0.0 0.00 0.00 0.00 95 1016.1
20260901111713 72 169 0.0 0.0 0.00 0.00 0.00 95 1016.0
20260901111609 72 169 0.0 0.0 0.00 0.00 0.00 95 1016.0
20260901111506 72 169 0.0 0.0 0.00 0.00 0.00 95 1016.0
20260901111402 72 169 0.0 0.0 0.00 0.00 0.00 95 1016.0
20260901111256 72 169 0.0 0.0 0.00 0.00 0.00 95 1015.9
20260901110927 72 169 0.0 0.0 0.00 0.00 0.00 95 1015.9
20260901110822 72 169 0.0 0.0 0.00 0.00 0.00 95 1015.9
20260901110714 72 169 0.0 0.0 0.00 0.00 0.00 95 1015.9
20260901110348 72 169 0.0 0.0 0.00 0.00 0.00 95 1015.9
20260901110246 72 169 0.0 0.0 0.00 0.00 0.00 95 1015.9
20260901110142 72 169 0.0 0.0 0.00 0.00 0.00 95 1016.0
20260901110037 72 169 0.0 0.0 0.00 0.00 0.00 95 1015.9
20260901105933 72 169 0.0 0.0 0.00 0.00 0.00 95 1015.9
20260901105829 72 169 0.0 0.0 0.00 0.00 0.00 95 1016.0
20260901105727 72 169 0.0 0.0 0.00 0.00 0.00 95 1015.9
20260901105406 72 169 0.0 0.0 0.00 0.00 0.00 95 1016.0
20260901105300 72 169 0.0 0.0 0.00 0.00 0.00 95 1016.0
20260901105157 72 169 0.0 0.0 0.00 0.00 0.00 95 1015.9
20260901105055 72 169 0.0 0.0 0.00 0.00 0.00 95 1016.0
20260901104509 72 169 0.0 0.0 0.00 0.00 0.00 95 1016.0
20260901104404 72 169 0.0 0.0 0.00 0.00 0.00 95 1016.0
20260901104302 72 169 0.0 1.0 0.00 0.00 0.00 95 1016.0
20260901104155 72 169 0.0 1.0 0.00 0.00 0.00 95 1016.0
20260901104050 72 169 0.0 1.0 0.00 0.00 0.00 95 1015.9
20260901103947 73 169 0.0 1.0 0.00 0.00 0.00 95 1015.9
20260901103842 73 169 0.0 1.0 0.00 0.00 0.00 95 1015.8
20260901103738 73 169 0.0 1.0 0.00 0.00 0.00 95 1015.9
20260901103635 73 186 0.0 1.0 0.00 0.00 0.00 95 1015.9
20260901103532 73 186 0.0 1.0 0.00 0.00 0.00 95 1015.9
20260901103428 73 186 0.0 1.0 0.00 0.00 0.00 95 1015.9
20260901103325 73 186 0.0 1.0 0.00 0.00 0.00 95 1015.9
20260901103221 73 167 0.0 0.0 0.00 0.00 0.00 95 1015.9
20260901103116 73 167 0.0 0.0 0.00 0.00 0.00 95 1015.9
20260901103012 73 167 0.0 0.0 0.00 0.00 0.00 95 1015.9
20260901102909 73 167 0.0 0.0 0.00 0.00 0.00 95 1015.9
20260901102550 73 167 0.0 2.0 0.00 0.00 0.00 95 1015.8
20260901102442 73 167 0.0 2.0 0.00 0.00 0.00 95 1015.7
20260901102340 73 167 0.0 2.0 0.00 0.00 0.00 95 1015.8
20260901102239 73 167 0.0 2.0 0.00 0.00 0.00 95 1015.7
20260901102134 73 167 0.0 2.0 0.00 0.00 0.00 95 1015.7
20260901102030 73 167 0.0 2.0 0.00 0.00 0.00 95 1015.7
20260901101705 73 167 0.0 2.0 0.00 0.00 0.00 95 1015.8
20260901101337 73 167 0.0 2.0 0.00 0.00 0.00 95 1015.8
20260901101230 73 167 0.0 2.0 0.00 0.00 0.00 95 1015.7
20260901101123 73 167 0.0 0.0 0.00 0.00 0.00 95 1015.7
20260901101019 73 167 0.0 0.0 0.00 0.00 0.00 95 1015.8
20260901100913 73 167 0.0 0.0 0.00 0.00 0.00 95 1015.7
20260901100809 73 167 0.0 0.0 0.00 0.00 0.00 95 1015.7
20260901100703 73 167 0.0 0.0 0.00 0.00 0.00 95 1015.7
20260901100556 73 167 0.0 0.0 0.00 0.00 0.00 95 1015.7
20260901100453 73 167 0.0 0.0 0.00 0.00 0.00 95 1015.8
20260901100132 73 167 0.0 0.0 0.00 0.00 0.00 95 1015.7
20260901100027 73 150 0.0 0.0 0.00 0.00 0.00 95 1015.7
20260901095923 73 150 0.0 1.0 0.00 0.00 0.00 95 1015.7
20260901095604 73 150 0.0 1.0 0.00 0.00 0.00 95 1015.7
20260901095500 73 150 0.0 1.0 0.00 0.00 0.00 95 1015.7
20260901095351 73 150 0.0 1.0 0.00 0.00 0.00 95 1015.7
20260901095249 73 184 0.0 1.0 0.00 0.00 0.00 95 1015.7
20260901095144 73 184 0.0 1.0 0.00 0.00 0.00 95 1015.6
20260901095039 73 184 0.0 1.0 0.00 0.00 0.00 95 1015.7
20260901094934 73 184 0.0 1.0 0.00 0.00 0.00 95 1015.6
20260901094829 73 184 0.0 1.0 0.00 0.00 0.00 95 1015.7
20260901094725 73 125 0.0 1.0 0.00 0.00 0.00 95 1015.6
20260901094141 73 144 0.0 1.0 0.00 0.00 0.00 95 1015.8
20260901094037 73 144 0.0 1.0 0.00 0.00 0.00 95 1015.8
20260901093712 73 191 0.0 0.0 0.00 0.00 0.00 95 1015.8
20260901093605 73 191 0.0 1.0 0.00 0.00 0.00 95 1015.7
20260901093456 73 191 0.0 1.0 0.00 0.00 0.00 95 1015.7
20260901093349 73 191 0.0 1.0 0.00 0.00 0.00 95 1015.7
20260901093242 73 191 0.0 1.0 0.00 0.00 0.00 95 1015.7
20260901093137 73 191 0.0 1.0 0.00 0.00 0.00 95 1015.7
20260901093033 73 191 0.0 1.0 0.00 0.00 0.00 95 1015.7
20260901092928 73 191 0.0 1.0 0.00 0.00 0.00 95 1015.8
20260901092825 73 191 0.0 1.0 0.00 0.00 0.00 95 1015.8
20260901092720 73 191 0.0 1.0 0.00 0.00 0.00 95 1015.8
20260901092357 73 191 0.0 1.0 0.00 0.00 0.00 95 1015.8
20260901092251 73 191 0.0 1.0 0.00 0.00 0.00 95 1015.8
20260901091922 73 191 0.0 1.0 0.00 0.00 0.00 95 1015.8
20260901091817 73 224 0.0 0.0 0.00 0.00 0.00 95 1015.8
20260901091712 73 224 0.0 0.0 0.00 0.00 0.00 95 1015.9
20260901091609 73 224 0.0 0.0 0.00 0.00 0.00 95 1015.9
20260901091503 73 224 0.0 0.0 0.00 0.00 0.00 95 1015.9
20260901091359 73 224 0.0 0.0 0.00 0.00 0.00 95 1015.9
20260901091255 73 224 0.0 0.0 0.00 0.00 0.00 95 1015.9
20260901090929 73 224 0.0 0.0 0.00 0.00 0.00 95 1016.0
20260901090824 73 224 0.0 0.0 0.00 0.00 0.00 95 1016.0
20260901090720 73 224 0.0 0.0 0.00 0.00 0.00 95 1016.0
20260901090613 73 224 0.0 0.0 0.00 0.00 0.00 95 1016.0
20260901090032 73 224 0.0 0.0 0.00 0.00 0.00 95 1015.9
20260901085927 73 224 0.0 0.0 0.00 0.00 0.00 95 1016.0
20260901085821 73 224 0.0 0.0 0.00 0.00 0.00 95 1015.9
20260901085453 73 224 0.0 0.0 0.00 0.00 0.00 95 1016.1
20260901085351 73 224 0.0 0.0 0.00 0.00 0.00 94 1016.1
20260901085246 73 224 0.0 0.0 0.00 0.00 0.00 94 1016.1
20260901085141 73 224 0.0 0.0 0.00 0.00 0.00 94 1016.1
20260901085036 73 224 0.0 0.0 0.00 0.00 0.00 94 1016.1
20260901084932 73 224 0.0 0.0 0.00 0.00 0.00 94 1016.1
20260901084830 73 224 0.0 0.0 0.00 0.00 0.00 94 1016.1
20260901084723 73 224 0.0 0.0 0.00 0.00 0.00 94 1016.1
20260901084617 73 224 0.0 0.0 0.00 0.00 0.00 94 1016.1
20260901084510 74 224 0.0 0.0 0.00 0.00 0.00 94 1016.1
20260901084403 73 224 0.0 0.0 0.00 0.00 0.00 94 1016.1
20260901084037 74 224 0.0 0.0 0.00 0.00 0.00 94 1016.0
20260901083931 74 224 0.0 0.0 0.00 0.00 0.00 94 1016.0
20260901083827 74 224 0.0 0.0 0.00 0.00 0.00 94 1016.0
20260901083723 74 224 0.0 0.0 0.00 0.00 0.00 95 1016.0
20260901083358 74 152 0.0 1.0 0.00 0.00 0.00 94 1016.0
20260901083032 74 152 0.0 1.0 0.00 0.00 0.00 95 1016.0
20260901082924 74 152 0.0 0.0 0.00 0.00 0.00 95 1016.0
20260901082822 74 152 0.0 0.0 0.00 0.00 0.00 95 1016.0
20260901082719 74 152 0.0 0.0 0.00 0.00 0.00 94 1016.0
20260901082613 74 161 0.0 0.0 0.00 0.00 0.00 94 1016.0
20260901082506 74 161 0.0 0.0 0.00 0.00 0.00 94 1016.0
20260901082402 74 114 0.0 0.0 0.00 0.00 0.00 94 1016.0
20260901082256 74 114 0.0 0.0 0.00 0.00 0.00 94 1015.9
20260901082154 74 114 0.0 0.0 0.00 0.00 0.00 94 1015.9
20260901081823 74 114 0.0 2.0 0.00 0.00 0.00 94 1015.9
20260901081717 74 114 0.0 2.0 0.00 0.00 0.00 94 1015.9
20260901081610 74 114 0.0 2.0 0.00 0.00 0.00 94 1015.9
20260901081505 74 240 0.0 0.0 0.00 0.00 0.00 94 1015.9
20260901081358 74 240 0.0 0.0 0.00 0.00 0.00 94 1016.0
20260901081254 74 240 0.0 0.0 0.00 0.00 0.00 94 1015.9
20260901081149 74 240 0.0 0.0 0.00 0.00 0.00 94 1015.9
20260901081044 74 240 0.0 0.0 0.00 0.00 0.00 94 1015.9
20260901080939 74 240 0.0 0.0 0.00 0.00 0.00 94 1015.9
20260901080610 74 240 0.0 0.0 0.00 0.00 0.00 94 1016.0
20260901080502 74 240 0.0 0.0 0.00 0.00 0.00 94 1015.9
20260901080358 74 240 0.0 0.0 0.00 0.00 0.00 94 1015.9
20260901080253 74 240 0.0 0.0 0.00 0.00 0.00 94 1015.9
20260901080147 74 240 0.0 0.0 0.00 0.00 0.00 94 1015.9
20260901080041 74 240 0.0 0.0 0.00 0.00 0.00 94 1015.9
20260901075933 74 240 0.0 0.0 0.00 0.00 0.00 94 1015.9
20260901075829 74 240 0.0 0.0 0.00 0.00 0.00 94 1015.9
20260901075722 74 240 0.0 1.0 0.00 0.00 0.00 94 1015.9
20260901075620 74 240 0.0 1.0 0.00 0.00 0.00 94 1015.9
20260901075511 74 240 0.0 1.0 0.00 0.00 0.00 94 1015.9
20260901075409 74 205 0.0 0.0 0.00 0.00 0.00 94 1015.9
20260901075306 74 205 0.0 0.0 0.00 0.00 0.00 94 1015.9
20260901075159 74 205 0.0 0.0 0.00 0.00 0.00 94 1015.9
20260901075056 74 205 0.0 0.0 0.00 0.00 0.00 94 1015.9
20260901074949 74 205 0.0 0.0 0.00 0.00 0.00 94 1016.0
20260901074844 74 205 0.0 0.0 0.00 0.00 0.00 94 1016.0
20260901074514 74 205 0.0 0.0 0.00 0.00 0.00 94 1016.0
20260901074411 74 205 0.0 0.0 0.00 0.00 0.00 94 1016.0
20260901074307 74 205 0.0 0.0 0.00 0.00 0.00 94 1016.0
20260901074200 74 205 0.0 0.0 0.00 0.00 0.00 94 1016.1
20260901074054 74 205 0.0 0.0 0.00 0.00 0.00 94 1016.1
20260901073950 74 205 0.0 0.0 0.00 0.00 0.00 94 1016.0
20260901073845 74 205 0.0 0.0 0.00 0.00 0.00 94 1016.0
20260901073741 74 205 0.0 0.0 0.00 0.00 0.00 94 1016.1
20260901073636 74 205 0.0 0.0 0.00 0.00 0.00 94 1016.1
20260901073311 74 205 0.0 0.0 0.00 0.00 0.00 94 1016.1
20260901073202 74 205 0.0 0.0 0.00 0.00 0.00 94 1016.1
20260901072611 74 204 0.0 0.0 0.00 0.00 0.00 94 1016.2
20260901072508 74 204 0.0 0.0 0.00 0.00 0.00 94 1016.2
20260901072405 74 204 0.0 0.0 0.00 0.00 0.00 94 1016.2
20260901072258 74 207 0.0 0.0 0.00 0.00 0.00 94 1016.2
20260901072154 74 231 0.0 0.0 0.00 0.00 0.00 94 1016.3
20260901072048 74 232 0.0 0.0 0.00 0.00 0.00 94 1016.3
20260901071943 74 232 0.0 0.0 0.00 0.00 0.00 94 1016.3
20260901071841 74 232 0.0 0.0 0.00 0.00 0.00 94 1016.3
20260901071517 74 232 0.0 0.0 0.00 0.00 0.00 94 1016.3
20260901071413 74 232 0.0 0.0 0.00 0.00 0.00 94 1016.3
20260901071311 74 232 0.0 0.0 0.00 0.00 0.00 94 1016.3
20260901071208 74 232 0.0 0.0 0.00 0.00 0.00 94 1016.3
20260901070621 74 232 0.0 0.0 0.00 0.00 0.00 94 1016.3
20260901070515 74 232 0.0 0.0 0.00 0.00 0.00 94 1016.3
20260901070145 74 232 0.0 0.0 0.00 0.00 0.00 94 1016.4
20260901070038 74 231 0.0 0.0 0.00 0.00 0.00 94 1016.4
20260901065934 74 232 0.0 0.0 0.00 0.00 0.00 94 1016.4
20260901065833 74 232 0.0 0.0 0.00 0.00 0.00 94 1016.4
20260901065730 74 232 0.0 0.0 0.00 0.00 0.00 94 1016.4
20260901065627 74 232 0.0 0.0 0.00 0.00 0.00 94 1016.5
20260901065521 74 231 0.0 0.0 0.00 0.00 0.00 94 1016.4
20260901065417 74 232 0.0 0.0 0.00 0.00 0.00 94 1016.4
20260901065313 74 232 0.0 0.0 0.00 0.00 0.00 94 1016.5
20260901065206 74 231 0.0 0.0 0.00 0.00 0.00 94 1016.5
20260901065100 74 232 0.0 0.0 0.00 0.00 0.00 94 1016.5
20260901064738 74 232 0.0 0.0 0.00 0.00 0.00 94 1016.5
20260901064632 74 231 0.0 0.0 0.00 0.00 0.00 94 1016.5
20260901064307 74 231 0.0 0.0 0.00 0.00 0.00 94 1016.5
20260901064201 74 232 0.0 0.0 0.00 0.00 0.00 94 1016.5
20260901064058 74 231 0.0 0.0 0.00 0.00 0.00 94 1016.6
20260901063952 74 232 0.0 0.0 0.00 0.00 0.00 94 1016.6
20260901063848 74 231 0.0 0.0 0.00 0.00 0.00 94 1016.6
20260901063743 74 232 0.0 0.0 0.00 0.00 0.00 94 1016.6
20260901063638 74 232 0.0 0.0 0.00 0.00 0.00 94 1016.6
20260901063533 75 232 0.0 0.0 0.00 0.00 0.00 94 1016.6
20260901063203 74 232 0.0 0.0 0.00 0.00 0.00 94 1016.6
20260901063058 75 232 0.0 0.0 0.00 0.00 0.00 94 1016.6
20260901062950 75 232 0.0 0.0 0.00 0.00 0.00 94 1016.6
20260901062843 75 232 0.0 0.0 0.00 0.00 0.00 94 1016.6
20260901062740 75 232 0.0 0.0 0.00 0.00 0.00 94 1016.6
20260901062637 75 231 0.0 0.0 0.00 0.00 0.00 94 1016.6
20260901062530 75 231 0.0 0.0 0.00 0.00 0.00 94 1016.6
20260901062427 75 232 0.0 0.0 0.00 0.00 0.00 94 1016.7
20260901062325 75 232 0.0 0.0 0.00 0.00 0.00 94 1016.6
20260901062223 75 232 0.0 0.0 0.00 0.00 0.00 94 1016.7
20260901061637 75 232 0.0 0.0 0.00 0.00 0.00 94 1016.6
20260901061309 75 231 0.0 0.0 0.00 0.00 0.00 94 1016.6
20260901061206 75 232 0.0 0.0 0.00 0.00 0.00 94 1016.6
20260901060841 75 231 0.0 0.0 0.00 0.00 0.00 94 1016.5
20260901060735 75 232 0.0 0.0 0.00 0.00 0.00 94 1016.5
20260901060631 75 232 0.0 0.0 0.00 0.00 0.00 94 1016.4
20260901060525 75 232 0.0 0.0 0.00 0.00 0.00 94 1016.5
20260901060423 75 232 0.0 0.0 0.00 0.00 0.00 94 1016.5
20260901060318 75 231 0.0 0.0 0.00 0.00 0.00 94 1016.4
20260901060214 75 231 0.0 0.0 0.00 0.00 0.00 94 1016.5
20260901060111 75 231 0.0 0.0 0.00 0.00 0.00 94 1016.5
20260901060004 75 232 0.0 0.0 0.00 0.00 0.00 94 1016.5
20260901055857 75 231 0.0 0.0 0.00 0.00 0.00 94 1016.5
20260901055753 75 231 0.0 0.0 0.00 0.00 0.00 94 1016.5
20260901055648 75 231 0.0 0.0 0.00 0.00 0.00 94 1016.5
20260901055321 75 232 0.0 0.0 0.00 0.00 0.00 94 1016.6
20260901055219 75 231 0.0 0.0 0.00 0.00 0.00 94 1016.6
20260901054857 75 5 0.0 0.0 0.00 0.00 0.00 94 1016.7
20260901054751 75 5 0.0 0.0 0.00 0.00 0.00 94 1016.7
20260901054429 75 5 0.0 0.0 0.00 0.00 0.00 94 1016.7
20260901054322 75 5 0.0 0.0 0.00 0.00 0.00 94 1016.8
20260901054217 75 5 0.0 0.0 0.00 0.00 0.00 94 1016.8
20260901054115 75 5 0.0 0.0 0.00 0.00 0.00 94 1016.7
20260901054009 75 296 0.0 0.0 0.00 0.00 0.00 94 1016.8
20260901053905 75 296 0.0 0.0 0.00 0.00 0.00 94 1016.8
20260901053756 75 296 0.0 0.0 0.00 0.00 0.00 94 1016.9
20260901053650 75 296 0.0 0.0 0.00 0.00 0.00 94 1016.9
20260901053546 75 296 0.0 0.0 0.00 0.00 0.00 94 1016.8
20260901053439 75 296 0.0 1.0 0.00 0.00 0.00 94 1016.8
20260901053336 75 296 0.0 1.0 0.00 0.00 0.00 94 1016.9
20260901053015 75 296 0.0 1.0 0.00 0.00 0.00 94 1016.9
20260901052909 75 296 0.0 1.0 0.00 0.00 0.00 94 1016.9
20260901052544 75 296 0.0 1.0 0.00 0.00 0.00 94 1016.9
20260901052440 75 0 0.0 0.0 0.00 0.00 0.00 94 1016.9
20260901052337 75 0 0.0 0.0 0.00 0.00 0.00 94 1016.9
20260901052232 75 0 0.0 0.0 0.00 0.00 0.00 94 1016.9
20260901052126 75 0 0.0 0.0 0.00 0.00 0.00 94 1016.9
20260901052020 75 0 0.0 0.0 0.00 0.00 0.00 94 1016.9
20260901051913 75 0 0.0 0.0 0.00 0.00 0.00 94 1016.9
20260901051805 75 0 0.0 0.0 0.00 0.00 0.00 94 1016.9
20260901051436 75 0 0.0 0.0 0.00 0.00 0.00 94 1016.9
20260901051329 75 0 0.0 0.0 0.00 0.00 0.00 94 1016.9
20260901051224 75 0 0.0 0.0 0.00 0.00 0.00 94 1016.9
20260901051119 75 0 0.0 0.0 0.00 0.00 0.00 94 1016.9
20260901051016 75 0 0.0 0.0 0.00 0.00 0.00 94 1016.9
20260901050910 75 0 0.0 0.0 0.00 0.00 0.00 94 1016.9
20260901050808 75 0 0.0 0.0 0.00 0.00 0.00 94 1017.0
20260901050705 75 0 0.0 0.0 0.00 0.00 0.00 94 1017.0
20260901050559 75 0 0.0 0.0 0.00 0.00 0.00 94 1016.9
20260901050454 75 0 0.0 0.0 0.00 0.00 0.00 94 1016.9
20260901050133 75 0 0.0 0.0 0.00 0.00 0.00 94 1017.0
20260901050030 75 0 0.0 0.0 0.00 0.00 0.00 94 1017.0
20260901045923 75 0 0.0 0.0 0.00 0.00 0.00 94 1016.9
20260901045819 75 0 0.0 0.0 0.00 0.00 0.00 94 1017.0
20260901045456 75 0 0.0 0.0 0.00 0.00 0.00 94 1017.0
20260901045348 75 0 0.0 1.0 0.00 0.00 0.00 93 1017.0
20260901045240 75 0 0.0 1.0 0.00 0.00 0.00 93 1017.0
20260901045137 75 0 0.0 0.0 0.00 0.00 0.00 94 1017.0
20260901045033 75 0 0.0 0.0 0.00 0.00 0.00 94 1017.0
20260901044931 75 0 0.0 0.0 0.00 0.00 0.00 94 1017.0
20260901044824 75 0 0.0 0.0 0.00 0.00 0.00 93 1017.0
20260901044720 75 0 0.0 0.0 0.00 0.00 0.00 93 1017.0
20260901044612 75 0 0.0 0.0 0.00 0.00 0.00 93 1017.1
20260901044507 75 0 0.0 0.0 0.00 0.00 0.00 93 1017.1
20260901044402 75 0 0.0 0.0 0.00 0.00 0.00 93 1017.1
20260901044256 75 0 0.0 0.0 0.00 0.00 0.00 93 1017.1
20260901044152 75 0 0.0 0.0 0.00 0.00 0.00 93 1017.1
20260901044046 75 0 0.0 0.0 0.00 0.00 0.00 93 1017.1
20260901043943 75 0 0.0 0.0 0.00 0.00 0.00 93 1017.2
20260901043834 75 0 0.0 0.0 0.00 0.00 0.00 93 1017.2
20260901043732 75 0 0.0 0.0 0.00 0.00 0.00 93 1017.2
20260901043626 75 0 0.0 0.0 0.00 0.00 0.00 93 1017.2
20260901043519 75 0 0.0 0.0 0.00 0.00 0.00 93 1017.2
20260901043417 75 0 0.0 0.0 0.00 0.00 0.00 93 1017.3
20260901043315 75 0 0.0 1.0 0.00 0.00 0.00 93 1017.2
20260901043211 75 0 0.0 1.0 0.00 0.00 0.00 93 1017.3
20260901043106 75 0 0.0 0.0 0.00 0.00 0.00 93 1017.3
20260901042959 75 0 0.0 1.0 0.00 0.00 0.00 93 1017.3
20260901042857 75 0 0.0 0.0 0.00 0.00 0.00 93 1017.3
20260901042751 75 0 0.0 1.0 0.00 0.00 0.00 93 1017.3
20260901042645 75 0 0.0 1.0 0.00 0.00 0.00 93 1017.3
20260901042538 75 0 0.0 1.0 0.00 0.00 0.00 93 1017.3
20260901042212 75 0 0.0 1.0 0.00 0.00 0.00 93 1017.4
20260901042108 75 0 0.0 1.0 0.00 0.00 0.00 93 1017.4
20260901042002 75 0 0.0 1.0 0.00 0.00 0.00 93 1017.4
20260901041855 75 0 0.0 1.0 0.00 0.00 0.00 93 1017.4
20260901041752 75 0 0.0 1.0 0.00 0.00 0.00 93 1017.4
20260901041644 75 0 0.0 1.0 0.00 0.00 0.00 93 1017.4
20260901041538 75 248 0.0 1.0 0.00 0.00 0.00 93 1017.4
20260901041216 75 83 0.0 0.0 0.00 0.00 0.00 93 1017.5
20260901041112 75 83 0.0 0.0 0.00 0.00 0.00 93 1017.4
20260901041009 75 83 0.0 0.0 0.00 0.00 0.00 93 1017.4
20260901040902 75 83 0.0 0.0 0.00 0.00 0.00 93 1017.4
20260901040800 75 83 0.0 0.0 0.00 0.00 0.00 93 1017.5
20260901040653 75 83 0.0 0.0 0.00 0.00 0.00 93 1017.4
20260901040549 75 83 0.0 1.0 0.00 0.00 0.00 93 1017.4
20260901040445 75 83 0.0 1.0 0.00 0.00 0.00 93 1017.4
20260901040121 75 83 0.0 1.0 0.00 0.00 0.00 93 1017.4
20260901035755 75 83 0.0 1.0 0.00 0.00 0.00 93 1017.4
20260901035206 75 83 0.0 0.0 0.00 0.00 0.00 93 1017.4
20260901035101 75 83 0.0 0.0 0.00 0.00 0.00 93 1017.5
20260901034957 75 83 0.0 1.0 0.00 0.00 0.00 93 1017.4
20260901034412 75 83 0.0 0.0 0.00 0.00 0.00 93 1017.5
20260901034311 75 83 0.0 0.0 0.00 0.00 0.00 93 1017.5
20260901034205 75 83 0.0 0.0 0.00 0.00 0.00 93 1017.5
20260901034100 75 83 0.0 0.0 0.00 0.00 0.00 93 1017.5
20260901033954 75 83 0.0 0.0 0.00 0.00 0.00 93 1017.5
20260901033407 75 15 0.0 0.0 0.00 0.00 0.00 93 1017.5
20260901033305 75 15 0.0 0.0 0.00 0.00 0.00 93 1017.4
20260901033202 75 15 0.0 0.0 0.00 0.00 0.00 93 1017.4
20260901033055 75 15 0.0 0.0 0.00 0.00 0.00 93 1017.5
20260901032511 75 15 0.0 0.0 0.00 0.00 0.00 93 1017.5
20260901032405 75 15 0.0 0.0 0.00 0.00 0.00 93 1017.5
20260901032258 75 15 0.0 0.0 0.00 0.00 0.00 93 1017.5
20260901032152 75 15 0.0 0.0 0.00 0.00 0.00 93 1017.5
20260901032050 75 15 0.0 0.0 0.00 0.00 0.00 92 1017.5
20260901031945 75 15 0.0 0.0 0.00 0.00 0.00 92 1017.5
20260901031357 75 15 0.0 0.0 0.00 0.00 0.00 92 1017.5
20260901031253 75 15 0.0 0.0 0.00 0.00 0.00 92 1017.5
20260901031150 75 15 0.0 0.0 0.00 0.00 0.00 92 1017.5
20260901031043 75 15 0.0 0.0 0.00 0.00 0.00 92 1017.5
20260901030937 75 15 0.0 0.0 0.00 0.00 0.00 92 1017.5
20260901030830 75 15 0.0 0.0 0.00 0.00 0.00 92 1017.5
20260901030724 75 15 0.0 0.0 0.00 0.00 0.00 92 1017.5
20260901030617 75 15 0.0 0.0 0.00 0.00 0.00 92 1017.5
20260901030515 75 15 0.0 0.0 0.00 0.00 0.00 92 1017.5
20260901030410 75 15 0.0 0.0 0.00 0.00 0.00 92 1017.5
20260901030305 75 15 0.0 0.0 0.00 0.00 0.00 92 1017.6
20260901030201 75 15 0.0 0.0 0.00 0.00 0.00 92 1017.5
20260901030056 75 15 0.0 0.0 0.00 0.00 0.00 92 1017.6
20260901025952 75 15 0.0 0.0 0.00 0.00 0.00 92 1017.6
20260901025847 75 15 0.0 0.0 0.00 0.00 0.00 92 1017.6
20260901025743 75 15 0.0 0.0 0.00 0.00 0.00 92 1017.6
20260901025421 75 15 0.0 0.0 0.00 0.00 0.00 91 1017.5
20260901025056 75 15 0.0 0.0 0.00 0.00 0.00 91 1017.6
20260901024733 75 15 0.0 0.0 0.00 0.00 0.00 91 1017.5
20260901024629 75 15 0.0 0.0 0.00 0.00 0.00 91 1017.5
20260901024303 75 15 0.0 0.0 0.00 0.00 0.00 91 1017.5
20260901024157 75 15 0.0 0.0 0.00 0.00 0.00 91 1017.5
20260901024055 75 15 0.0 0.0 0.00 0.00 0.00 91 1017.5
20260901023949 75 15 0.0 0.0 0.00 0.00 0.00 91 1017.5
20260901023844 75 15 0.0 0.0 0.00 0.00 0.00 91 1017.6
20260901023522 75 15 0.0 0.0 0.00 0.00 0.00 91 1017.5
20260901023415 75 15 0.0 0.0 0.00 0.00 0.00 91 1017.5
20260901023311 75 15 0.0 0.0 0.00 0.00 0.00 91 1017.5
20260901023207 75 15 0.0 0.0 0.00 0.00 0.00 91 1017.5
20260901023105 75 15 0.0 0.0 0.00 0.00 0.00 91 1017.5
20260901022958 75 15 0.0 0.0 0.00 0.00 0.00 91 1017.5
20260901022854 75 15 0.0 0.0 0.00 0.00 0.00 91 1017.5
20260901022748 75 15 0.0 0.0 0.00 0.00 0.00 91 1017.5
20260901022645 75 15 0.0 0.0 0.00 0.00 0.00 91 1017.5
20260901022540 76 15 0.0 0.0 0.00 0.00 0.00 91 1017.5
20260901022435 76 15 0.0 0.0 0.00 0.00 0.00 91 1017.5
20260901022329 76 15 0.0 0.0 0.00 0.00 0.00 91 1017.5
20260901022005 76 15 0.0 1.0 0.00 0.00 0.00 91 1017.6
20260901021901 76 15 0.0 1.0 0.00 0.00 0.00 91 1017.6
20260901021531 76 15 0.0 1.0 0.00 0.00 0.00 90 1017.6
20260901021426 76 15 0.0 1.0 0.00 0.00 0.00 90 1017.6
20260901021323 76 15 0.0 1.0 0.00 0.00 0.00 90 1017.6
20260901021219 76 15 0.0 1.0 0.00 0.00 0.00 90 1017.6
20260901021115 76 15 0.0 0.0 0.00 0.00 0.00 90 1017.5
20260901021013 76 15 0.0 0.0 0.00 0.00 0.00 90 1017.6
20260901020909 76 15 0.0 0.0 0.00 0.00 0.00 90 1017.5
20260901020802 76 15 0.0 0.0 0.00 0.00 0.00 90 1017.4
20260901020700 76 15 0.0 0.0 0.00 0.00 0.00 90 1017.5
20260901020556 76 15 0.0 0.0 0.00 0.00 0.00 90 1017.4
20260901020451 76 15 0.0 0.0 0.00 0.00 0.00 90 1017.5
20260901020345 76 15 0.0 0.0 0.00 0.00 0.00 90 1017.4
20260901020241 76 15 0.0 0.0 0.00 0.00 0.00 90 1017.4
20260901020135 76 15 0.0 0.0 0.00 0.00 0.00 90 1017.4
20260901020030 76 15 0.0 0.0 0.00 0.00 0.00 90 1017.4
20260901015925 76 15 0.0 0.0 0.00 0.00 0.00 90 1017.4
20260901015820 76 15 0.0 0.0 0.00 0.00 0.00 90 1017.4
20260901015717 76 15 0.0 0.0 0.00 0.00 0.00 90 1017.4
20260901015612 76 15 0.0 0.0 0.00 0.00 0.00 90 1017.4
20260901015505 77 15 0.0 0.0 0.00 0.00 0.00 90 1017.4
20260901015359 76 15 0.0 0.0 0.00 0.00 0.00 90 1017.5
20260901015256 77 15 0.0 0.0 0.00 0.00 0.00 90 1017.4
20260901015149 77 15 0.0 0.0 0.00 0.00 0.00 90 1017.4
20260901015044 77 15 0.0 0.0 0.00 0.00 0.00 90 1017.4
20260901014941 77 15 0.0 0.0 0.00 0.00 0.00 90 1017.3
20260901014837 77 15 0.0 0.0 0.00 0.00 0.00 90 1017.4
20260901014730 77 15 0.0 0.0 0.00 0.00 0.00 90 1017.3
20260901014623 77 15 0.0 0.0 0.00 0.00 0.00 90 1017.3
20260901014516 77 15 0.0 0.0 0.00 0.00 0.00 89 1017.3
20260901014152 77 15 0.0 0.0 0.00 0.00 0.00 89 1017.3
20260901014046 77 15 0.0 0.0 0.00 0.00 0.00 89 1017.3
20260901013937 77 15 0.0 0.0 0.00 0.00 0.00 89 1017.3
20260901013830 77 15 0.0 0.0 0.00 0.00 0.00 89 1017.3
20260901013727 77 15 0.0 0.0 0.00 0.00 0.00 89 1017.3
20260901013623 77 15 0.0 0.0 0.00 0.00 0.00 89 1017.3
20260901013516 77 15 0.0 0.0 0.00 0.00 0.00 89 1017.3
20260901013410 77 15 0.0 0.0 0.00 0.00 0.00 89 1017.3
20260901013307 77 15 0.0 0.0 0.00 0.00 0.00 89 1017.3
20260901013201 77 15 0.0 0.0 0.00 0.00 0.00 89 1017.3
20260901012840 77 15 0.0 0.0 0.00 0.00 0.00 89 1017.2
20260901012736 77 15 0.0 0.0 0.00 0.00 0.00 89 1017.2
20260901012629 77 15 0.0 0.0 0.00 0.00 0.00 89 1017.3
20260901012525 77 15 0.0 0.0 0.00 0.00 0.00 89 1017.3
20260901012419 77 15 0.0 0.0 0.00 0.00 0.00 89 1017.2
20260901012317 77 15 0.0 0.0 0.00 0.00 0.00 89 1017.2
20260901012212 77 15 0.0 0.0 0.00 0.00 0.00 89 1017.3
20260901012107 77 15 0.0 0.0 0.00 0.00 0.00 89 1017.3
20260901012000 77 15 0.0 0.0 0.00 0.00 0.00 89 1017.3
20260901011635 77 15 0.0 0.0 0.00 0.00 0.00 89 1017.2
20260901011309 78 15 0.0 0.0 0.00 0.00 0.00 89 1017.2
20260901011202 78 15 0.0 0.0 0.00 0.00 0.00 89 1017.1
20260901011056 78 15 0.0 0.0 0.00 0.00 0.00 89 1017.1
20260901010952 78 15 0.0 0.0 0.00 0.00 0.00 89 1017.1
20260901010847 78 15 0.0 0.0 0.00 0.00 0.00 88 1017.1
20260901010740 78 15 0.0 0.0 0.00 0.00 0.00 88 1017.1
20260901010631 78 15 0.0 0.0 0.00 0.00 0.00 88 1017.1
20260901010528 78 15 0.0 0.0 0.00 0.00 0.00 88 1017.1
20260901010422 78 15 0.0 0.0 0.00 0.00 0.00 88 1017.1
20260901010314 78 15 0.0 0.0 0.00 0.00 0.00 88 1017.1
20260901005951 78 15 0.0 0.0 0.00 0.00 0.00 88 1017.1
20260901005846 78 15 0.0 0.0 0.00 0.00 0.00 88 1017.1
20260901005521 78 15 0.0 0.0 0.00 0.00 0.00 88 1017.1
20260901005416 78 15 0.0 0.0 0.00 0.00 0.00 88 1017.0
20260901005309 78 15 0.0 0.0 0.00 0.00 0.00 88 1017.0
20260901004946 78 15 0.0 0.0 0.00 0.00 0.00 88 1017.0
20260901004841 78 15 0.0 0.0 0.00 0.00 0.00 88 1017.0
20260901004737 78 15 0.0 0.0 0.00 0.00 0.00 88 1017.0
20260901004631 78 15 0.0 0.0 0.00 0.00 0.00 88 1016.9
20260901004524 78 15 0.0 0.0 0.00 0.00 0.00 88 1016.9
20260901004158 78 15 0.0 0.0 0.00 0.00 0.00 88 1016.9
20260901004054 78 15 0.0 0.0 0.00 0.00 0.00 88 1017.0
20260901003951 78 15 0.0 0.0 0.00 0.00 0.00 88 1017.0
20260901003845 78 15 0.0 0.0 0.00 0.00 0.00 88 1017.0
20260901003740 78 15 0.0 0.0 0.00 0.00 0.00 88 1017.0
20260901003419 78 15 0.0 0.0 0.00 0.00 0.00 87 1017.0
20260901003314 78 15 0.0 0.0 0.00 0.00 0.00 87 1017.0
20260901003213 78 15 0.0 0.0 0.00 0.00 0.00 87 1016.9
20260901003109 78 15 0.0 0.0 0.00 0.00 0.00 87 1016.9
20260901003004 78 15 0.0 0.0 0.00 0.00 0.00 87 1016.9
20260901002901 78 15 0.0 0.0 0.00 0.00 0.00 86 1016.8
20260901002756 78 15 0.0 0.0 0.00 0.00 0.00 86 1016.8
20260901002652 78 15 0.0 0.0 0.00 0.00 0.00 86 1016.8
20260901002550 78 15 0.0 0.0 0.00 0.00 0.00 86 1016.8
20260901002447 79 15 0.0 0.0 0.00 0.00 0.00 86 1016.8
20260901002345 79 15 0.0 0.0 0.00 0.00 0.00 87 1016.8
20260901002022 79 15 0.0 0.0 0.00 0.00 0.00 87 1016.9
20260901001654 79 15 0.0 0.0 0.00 0.00 0.00 87 1016.8
20260901001326 79 15 0.0 0.0 0.00 0.00 0.00 87 1016.8
20260901001220 79 15 0.0 0.0 0.00 0.00 0.00 87 1016.8
20260901000856 79 15 0.0 0.0 0.00 0.00 0.00 87 1016.8
20260901000749 79 15 0.0 0.0 0.00 0.00 0.00 87 1016.8
20260901000644 79 15 0.0 0.0 0.00 0.00 0.00 87 1016.8
20260901000539 79 15 0.0 0.0 0.00 0.00 0.00 87 1016.8
20260901000435 79 15 0.0 0.0 0.00 0.00 0.00 87 1016.8
20260901000331 79 15 0.0 0.0 0.00 0.00 0.00 87 1016.8
20260901000226 79 15 0.0 0.0 0.00 0.00 0.00 87 1016.8
20260901000121 79 15 0.0 0.0 0.00 0.00 0.00 87 1016.8
20260901000016 79 15 0.0 0.0 0.00 0.00 0.00 87 1016.8
20260831235650 79 15 0.0 0.0 0.00 0.00 0.00 87 1016.8
20260831235545 79 15 0.0 0.0 0.00 0.00 0.00 86 1016.8
20260831235225 79 15 0.0 0.0 0.00 0.00 0.00 86 1016.9
20260831235119 79 15 0.0 0.0 0.00 0.00 0.00 86 1016.9
20260831235012 79 15 0.0 0.0 0.00 0.00 0.00 86 1016.8
20260831234909 79 15 0.0 0.0 0.00 0.00 0.00 86 1016.8
20260831234804 80 15 0.0 0.0 0.00 0.00 0.00 86 1016.9
20260831234700 80 15 0.0 0.0 0.00 0.00 0.00 86 1016.8
20260831234554 80 15 0.0 0.0 0.00 0.00 0.00 86 1016.9
20260831234448 80 15 0.0 0.0 0.00 0.00 0.00 86 1016.9
20260831234346 80 15 0.0 0.0 0.00 0.00 0.00 86 1016.8
20260831234244 80 15 0.0 0.0 0.00 0.00 0.00 86 1016.8
20260831234139 80 15 0.0 0.0 0.00 0.00 0.00 86 1016.9
20260831234035 80 15 0.0 0.0 0.00 0.00 0.00 86 1016.9
20260831233932 80 15 0.0 0.0 0.00 0.00 0.00 86 1016.8
20260831233826 80 15 0.0 0.0 0.00 0.00 0.00 86 1016.8
20260831233721 80 15 0.0 0.0 0.00 0.00 0.00 86 1016.8
20260831233614 80 15 0.0 0.0 0.00 0.00 0.00 86 1016.8
20260831233507 80 15 0.0 0.0 0.00 0.00 0.00 86 1016.8
20260831232915 80 15 0.0 0.0 0.00 0.00 0.00 86 1016.8
20260831232809 80 15 0.0 0.0 0.00 0.00 0.00 86 1016.8
20260831232701 80 15 0.0 0.0 0.00 0.00 0.00 86 1016.8
20260831232555 80 15 0.0 0.0 0.00 0.00 0.00 86 1016.8
20260831232447 80 15 0.0 0.0 0.00 0.00 0.00 86 1016.8
20260831232339 80 15 0.0 0.0 0.00 0.00 0.00 86 1016.8
20260831232235 80 15 0.0 0.0 0.00 0.00 0.00 86 1016.8
20260831232131 80 15 0.0 0.0 0.00 0.00 0.00 86 1016.8
20260831232027 80 15 0.0 0.0 0.00 0.00 0.00 85 1016.8
20260831231705 81 15 0.0 0.0 0.00 0.00 0.00 85 1016.8
20260831231559 81 15 0.0 0.0 0.00 0.00 0.00 85 1016.8
20260831231235 81 15 0.0 0.0 0.00 0.00 0.00 85 1016.8
20260831231129 81 15 0.0 0.0 0.00 0.00 0.00 85 1016.8
20260831231025 81 15 0.0 0.0 0.00 0.00 0.00 85 1016.8
20260831230917 81 15 0.0 0.0 0.00 0.00 0.00 84 1016.8
20260831230814 81 15 0.0 0.0 0.00 0.00 0.00 84 1016.8
20260831230708 81 15 0.0 0.0 0.00 0.00 0.00 84 1016.8
20260831230344 81 15 0.0 0.0 0.00 0.00 0.00 84 1016.8
20260831230236 81 15 0.0 0.0 0.00 0.00 0.00 84 1016.9
20260831230132 81 15 0.0 0.0 0.00 0.00 0.00 84 1016.9
20260831225329 81 15 0.0 0.0 0.00 0.00 0.00 83 1017.0
20260831224746 81 15 0.0 0.0 0.00 0.00 0.00 83 1017.0
20260831224644 81 15 0.0 0.0 0.00 0.00 0.00 83 1017.1
20260831224318 81 15 0.0 0.0 0.00 0.00 0.00 83 1017.1
20260831224213 81 15 0.0 0.0 0.00 0.00 0.00 83 1017.1
20260831223845 81 15 0.0 0.0 0.00 0.00 0.00 83 1017.2
20260831223742 81 15 0.0 0.0 0.00 0.00 0.00 83 1017.3
20260831223637 82 15 0.0 0.0 0.00 0.00 0.00 83 1017.3
20260831223534 82 15 0.0 0.0 0.00 0.00 0.00 83 1017.3
20260831223430 82 15 0.0 0.0 0.00 0.00 0.00 83 1017.3
20260831223322 82 15 0.0 0.0 0.00 0.00 0.00 84 1017.3
20260831223216 82 15 0.0 0.0 0.00 0.00 0.00 84 1017.3
20260831223113 82 15 0.0 0.0 0.00 0.00 0.00 84 1017.2
20260831223008 82 15 0.0 0.0 0.00 0.00 0.00 84 1017.2
20260831222900 82 15 0.0 0.0 0.00 0.00 0.00 84 1017.2
20260831222535 82 15 0.0 0.0 0.00 0.00 0.00 84 1017.2
20260831222211 82 15 0.0 0.0 0.00 0.00 0.00 83 1017.3
20260831221624 82 15 0.0 0.0 0.00 0.00 0.00 82 1017.4
20260831221519 82 15 0.0 0.0 0.00 0.00 0.00 82 1017.4
20260831221412 82 15 0.0 0.0 0.00 0.00 0.00 82 1017.4
20260831221308 82 15 0.0 0.0 0.00 0.00 0.00 82 1017.4
20260831221204 82 15 0.0 0.0 0.00 0.00 0.00 82 1017.4
20260831220358 82 15 0.0 0.0 0.00 0.00 0.00 81 1017.4
20260831220254 82 15 0.0 0.0 0.00 0.00 0.00 82 1017.5
20260831220152 82 15 0.0 0.0 0.00 0.00 0.00 82 1017.4
20260831220050 82 15 0.0 0.0 0.00 0.00 0.00 82 1017.4
20260831215943 82 15 0.0 0.0 0.00 0.00 0.00 82 1017.5
20260831215838 82 15 0.0 0.0 0.00 0.00 0.00 81 1017.4
20260831215732 82 15 0.0 0.0 0.00 0.00 0.00 81 1017.5
20260831215625 82 15 0.0 0.0 0.00 0.00 0.00 81 1017.5
20260831215518 82 15 0.0 0.0 0.00 0.00 0.00 81 1017.5
20260831215414 82 15 0.0 0.0 0.00 0.00 0.00 81 1017.6
20260831215311 82 15 0.0 0.0 0.00 0.00 0.00 81 1017.6
20260831215205 82 15 0.0 0.0 0.00 0.00 0.00 81 1017.5
20260831215103 82 15 0.0 0.0 0.00 0.00 0.00 81 1017.5
20260831214956 82 15 0.0 0.0 0.00 0.00 0.00 82 1017.5
20260831214849 82 15 0.0 0.0 0.00 0.00 0.00 82 1017.5
20260831214746 82 15 0.0 0.0 0.00 0.00 0.00 82 1017.4
20260831214424 82 15 0.0 0.0 0.00 0.00 0.00 81 1017.4
20260831214059 82 15 0.0 0.0 0.00 0.00 0.00 81 1017.4
20260831213953 82 15 0.0 0.0 0.00 0.00 0.00 80 1017.4
20260831213851 82 15 0.0 0.0 0.00 0.00 0.00 80 1017.4
20260831213747 82 15 0.0 0.0 0.00 0.00 0.00 80 1017.5
20260831213641 82 15 0.0 0.0 0.00 0.00 0.00 80 1017.4
20260831213536 82 15 0.0 0.0 0.00 0.00 0.00 80 1017.5
20260831213432 82 15 0.0 0.0 0.00 0.00 0.00 80 1017.4
20260831213328 82 15 0.0 0.0 0.00 0.00 0.00 80 1017.4
20260831213220 82 15 0.0 0.0 0.00 0.00 0.00 80 1017.5
20260831213114 82 15 0.0 0.0 0.00 0.00 0.00 80 1017.5
20260831212745 82 15 0.0 0.0 0.00 0.00 0.00 80 1017.4
20260831212643 82 15 0.0 0.0 0.00 0.00 0.00 80 1017.5
20260831212540 83 15 0.0 0.0 0.00 0.00 0.00 80 1017.5
20260831212216 82 15 0.0 0.0 0.00 0.00 0.00 79 1017.5
20260831212114 82 15 0.0 0.0 0.00 0.00 0.00 79 1017.5
20260831212007 82 15 0.0 0.0 0.00 0.00 0.00 78 1017.5
20260831211904 83 15 0.0 0.0 0.00 0.00 0.00 78 1017.5
20260831211546 83 15 0.0 0.0 0.00 0.00 0.00 79 1017.5
20260831211443 83 15 0.0 0.0 0.00 0.00 0.00 79 1017.5
20260831211341 83 15 0.0 0.0 0.00 0.00 0.00 79 1017.5
20260831211016 83 15 0.0 0.0 0.00 0.00 0.00 79 1017.4
20260831210911 83 15 0.0 0.0 0.00 0.00 0.00 79 1017.5
20260831210808 83 15 0.0 0.0 0.00 0.00 0.00 79 1017.5
20260831210705 83 15 0.0 0.0 0.00 0.00 0.00 79 1017.5
20260831210603 83 15 0.0 0.0 0.00 0.00 0.00 79 1017.5
20260831210242 83 15 0.0 0.0 0.00 0.00 0.00 79 1017.5
20260831210135 83 15 0.0 0.0 0.00 0.00 0.00 79 1017.5
20260831210033 83 15 0.0 0.0 0.00 0.00 0.00 78 1017.5
20260831205710 83 15 0.0 0.0 0.00 0.00 0.00 78 1017.5
20260831205603 83 15 0.0 0.0 0.00 0.00 0.00 78 1017.5
20260831205023 83 15 0.0 0.0 0.00 0.00 0.00 79 1017.5
20260831204700 83 15 0.0 0.0 0.00 0.00 0.00 79 1017.4
20260831204338 83 15 0.0 0.0 0.00 0.00 0.00 79 1017.4
20260831204010 83 15 0.0 0.0 0.00 0.00 0.00 79 1017.5
20260831203906 83 15 0.0 0.0 0.00 0.00 0.00 78 1017.5
20260831203758 83 15 0.0 0.0 0.00 0.00 0.00 78 1017.5
20260831203650 83 15 0.0 0.0 0.00 0.00 0.00 78 1017.5
20260831203545 83 15 0.0 0.0 0.00 0.00 0.00 77 1017.4
20260831203440 83 15 0.0 0.0 0.00 0.00 0.00 77 1017.4
20260831203336 83 15 0.0 0.0 0.00 0.00 0.00 77 1017.5
20260831203013 84 15 0.0 0.0 0.00 0.00 0.00 77 1017.4
20260831202911 84 15 0.0 0.0 0.00 0.00 0.00 77 1017.4
20260831202804 84 15 0.0 0.0 0.00 0.00 0.00 77 1017.4
20260831202659 84 15 0.0 0.0 0.00 0.00 0.00 77 1017.4
20260831202551 84 15 0.0 0.0 0.00 0.00 0.00 77 1017.4
20260831202443 84 15 0.0 0.0 0.00 0.00 0.00 77 1017.5
20260831202338 84 15 0.0 0.0 0.00 0.00 0.00 78 1017.4
20260831202012 84 15 0.0 0.0 0.00 0.00 0.00 78 1017.5
20260831201908 84 15 0.0 0.0 0.00 0.00 0.00 78 1017.4
20260831201800 84 15 0.0 0.0 0.00 0.00 0.00 78 1017.5
20260831201430 84 15 0.0 0.0 0.00 0.00 0.00 78 1017.4
20260831201326 84 15 0.0 0.0 0.00 0.00 0.00 78 1017.4
20260831201225 84 15 0.0 0.0 0.00 0.00 0.00 77 1017.4
20260831201119 84 15 0.0 0.0 0.00 0.00 0.00 77 1017.5
20260831201017 84 15 0.0 0.0 0.00 0.00 0.00 77 1017.5
20260831200914 84 15 0.0 0.0 0.00 0.00 0.00 77 1017.5
20260831200806 84 15 0.0 0.0 0.00 0.00 0.00 77 1017.5
20260831200444 84 15 0.0 0.0 0.00 0.00 0.00 76 1017.6
20260831200118 84 15 0.0 0.0 0.00 0.00 0.00 76 1017.6
20260831200010 84 15 0.0 0.0 0.00 0.00 0.00 76 1017.6
20260831195905 84 15 0.0 0.0 0.00 0.00 0.00 76 1017.5
20260831195800 84 15 0.0 0.0 0.00 0.00 0.00 76 1017.5
20260831195652 84 15 0.0 0.0 0.00 0.00 0.00 76 1017.5
20260831195548 84 15 0.0 0.0 0.00 0.00 0.00 75 1017.4
20260831195226 84 15 0.0 0.0 0.00 0.00 0.00 75 1017.5
20260831195122 84 15 0.0 0.0 0.00 0.00 0.00 76 1017.4
20260831195020 84 15 0.0 0.0 0.00 0.00 0.00 76 1017.4
20260831194915 84 15 0.0 0.0 0.00 0.00 0.00 75 1017.4
20260831194810 84 15 0.0 0.0 0.00 0.00 0.00 75 1017.4
20260831194708 84 15 0.0 0.0 0.00 0.00 0.00 76 1017.4
20260831194603 84 5 0.0 0.0 0.00 0.00 0.00 76 1017.4
20260831194236 84 32 0.0 0.0 0.00 0.00 0.00 76 1017.4
20260831194129 84 32 0.0 0.0 0.00 0.00 0.00 76 1017.4
20260831193759 84 32 0.0 0.0 0.00 0.00 0.00 76 1017.4
20260831193655 84 32 0.0 0.0 0.00 0.00 0.00 76 1017.5
20260831193553 84 32 0.0 0.0 0.00 0.00 0.00 76 1017.5
20260831193446 84 32 0.0 0.0 0.00 0.00 0.00 76 1017.5
20260831193120 84 32 0.0 0.0 0.00 0.00 0.00 76 1017.6
20260831193018 84 32 0.0 0.0 0.00 0.00 0.00 76 1017.6
20260831192913 84 32 0.0 1.0 0.00 0.00 0.00 76 1017.6
20260831192808 84 32 0.0 1.0 0.00 0.00 0.00 76 1017.6
20260831192705 84 32 0.0 1.0 0.00 0.00 0.00 76 1017.6
20260831192601 84 32 0.0 1.0 0.00 0.00 0.00 76 1017.6
20260831192453 84 40 0.0 1.0 0.00 0.00 0.00 77 1017.7
20260831192349 84 5 0.0 1.0 0.00 0.00 0.00 77 1017.6
20260831192247 84 5 0.0 1.0 0.00 0.00 0.00 77 1017.7
20260831191924 84 17 0.0 0.0 0.00 0.00 0.00 77 1017.7
20260831191817 84 17 0.0 0.0 0.00 0.00 0.00 77 1017.7
20260831191710 84 17 0.0 1.0 0.00 0.00 0.00 76 1017.7
20260831191604 84 17 0.0 1.0 0.00 0.00 0.00 76 1017.8
20260831191457 84 336 0.0 1.0 0.00 0.00 0.00 77 1017.8
20260831191355 84 267 0.0 1.0 0.00 0.00 0.00 77 1017.8
20260831191248 84 267 0.0 1.0 0.00 0.00 0.00 77 1017.8
20260831191145 84 260 0.0 1.0 0.00 0.00 0.00 77 1017.8
20260831190817 84 167 0.0 1.0 0.00 0.00 0.00 77 1017.9
20260831190714 84 167 0.0 1.0 0.00 0.00 0.00 77 1017.9
20260831190348 84 5 0.0 1.0 0.00 0.00 0.00 76 1018.0
20260831190243 84 5 0.0 1.0 0.00 0.00 0.00 77 1018.0
20260831190141 84 5 0.0 1.0 0.00 0.00 0.00 77 1018.0
20260831190038 84 5 0.0 1.0 0.00 0.00 0.00 77 1018.0
20260831185710 84 5 0.0 1.0 0.00 0.00 0.00 77 1018.0
20260831185605 84 5 0.0 1.0 0.00 0.00 0.00 76 1018.0
20260831185459 84 235 0.0 1.0 0.00 0.00 0.00 76 1018.0
20260831185352 84 235 0.0 1.0 0.00 0.00 0.00 76 1018.0
20260831185248 84 235 0.0 1.0 0.00 0.00 0.00 75 1018.0
20260831185142 84 235 0.0 1.0 0.00 0.00 0.00 74 1018.0
20260831185037 84 235 0.0 1.0 0.00 0.00 0.00 75 1018.1
20260831184930 84 235 0.0 1.0 0.00 0.00 0.00 75 1018.1
20260831184825 84 277 0.0 1.0 0.00 0.00 0.00 75 1018.1
20260831184719 84 49 0.0 1.0 0.00 0.00 0.00 74 1018.1
20260831184616 84 25 0.0 1.0 0.00 0.00 0.00 74 1018.1
20260831184514 85 136 0.0 1.0 0.00 0.00 0.00 73 1018.1
20260831184408 85 163 0.0 1.0 0.00 0.00 0.00 73 1018.1
20260831184301 85 171 0.0 1.0 0.00 0.00 0.00 72 1018.1
20260831183935 84 229 0.0 1.0 0.00 0.00 0.00 76 1018.0
20260831183829 84 227 0.0 1.0 0.00 0.00 0.00 77 1018.1
20260831183503 83 279 0.0 1.0 0.00 0.00 0.00 77 1018.0
20260831183359 83 274 0.0 1.0 0.00 0.00 0.00 77 1018.0
20260831183252 83 15 0.0 0.0 0.00 0.00 0.00 77 1018.1
20260831182708 83 65 0.0 1.0 0.00 0.00 0.00 79 1018.1
20260831182603 83 69 0.0 0.0 0.00 0.00 0.00 79 1018.2
20260831182455 83 69 0.0 0.0 0.00 0.00 0.00 80 1018.2
20260831182351 83 69 0.0 0.0 0.00 0.00 0.00 80 1018.2
20260831182025 83 69 0.0 0.0 0.00 0.00 0.00 79 1018.2
20260831181917 83 69 0.0 0.0 0.00 0.00 0.00 79 1018.2
20260831181813 83 69 0.0 0.0 0.00 0.00 0.00 80 1018.2
20260831181445 82 69 0.0 0.0 0.00 0.00 0.00 79 1018.1
20260831181343 82 69 0.0 0.0 0.00 0.00 0.00 78 1018.1
20260831181236 82 69 0.0 0.0 0.00 0.00 0.00 78 1018.1
20260831181134 82 69 0.0 0.0 0.00 0.00 0.00 79 1018.1
20260831180810 83 31 0.0 1.0 0.00 0.00 0.00 78 1018.1
20260831180708 83 31 0.0 1.0 0.00 0.00 0.00 78 1018.1
20260831180602 83 297 0.0 0.0 0.00 0.00 0.00 77 1018.1
20260831180455 83 297 0.0 0.0 0.00 0.00 0.00 77 1018.1
20260831180352 83 297 0.0 0.0 0.00 0.00 0.00 77 1018.1
20260831180249 83 297 0.0 0.0 0.00 0.00 0.00 78 1018.1
20260831180144 83 297 0.0 0.0 0.00 0.00 0.00 77 1018.1
20260831180040 83 297 0.0 0.0 0.00 0.00 0.00 77 1018.1
20260831175454 83 297 0.0 1.0 0.00 0.00 0.00 77 1018.2
20260831175126 84 289 0.0 0.0 0.00 0.00 0.00 77 1018.2
20260831175019 84 322 0.0 0.0 0.00 0.00 0.00 76 1018.1
20260831174914 84 313 0.0 0.0 0.00 0.00 0.00 76 1018.2
20260831174551 83 276 0.0 1.0 0.00 0.00 0.00 76 1018.2
20260831174444 83 276 0.0 1.0 0.00 0.00 0.00 77 1018.2
20260831174339 83 276 0.0 1.0 0.00 0.00 0.00 76 1018.3
20260831174232 83 276 0.0 1.0 0.00 0.00 0.00 76 1018.3
20260831174126 83 254 0.0 1.0 0.00 0.00 0.00 76 1018.3
20260831174024 83 260 0.0 1.0 0.00 0.00 0.00 76 1018.3
20260831173921 83 245 0.0 1.0 0.00 0.00 0.00 75 1018.3
20260831173815 83 245 0.0 1.0 0.00 0.00 0.00 76 1018.3
20260831173709 83 265 0.0 1.0 0.00 0.00 0.00 76 1018.3
20260831173605 83 296 0.0 1.0 0.00 0.00 0.00 76 1018.3
20260831173500 83 268 0.0 1.0 0.00 0.00 0.00 76 1018.3
20260831173132 83 140 0.0 1.0 0.00 0.00 0.00 77 1018.3
20260831173026 83 191 0.0 1.0 0.00 0.00 0.00 76 1018.3
20260831172921 83 159 0.0 1.0 0.00 0.00 0.00 76 1018.3
20260831172815 83 217 0.0 1.0 0.00 0.00 0.00 75 1018.2
20260831172712 83 264 0.0 1.0 0.00 0.00 0.00 75 1018.3
20260831172606 83 227 0.0 1.0 0.00 0.00 0.00 75 1018.2
20260831172501 83 155 0.0 1.0 0.00 0.00 0.00 75 1018.2
20260831172353 83 107 0.0 1.0 0.00 0.00 0.00 74 1018.2
20260831172249 83 53 0.0 1.0 0.00 0.00 0.00 75 1018.2
20260831172142 83 53 0.0 1.0 0.00 0.00 0.00 74 1018.2
20260831172036 83 53 0.0 1.0 0.00 0.00 0.00 74 1018.2
20260831171713 83 309 0.0 1.0 0.00 0.00 0.00 74 1018.3
20260831171611 83 309 0.0 1.0 0.00 0.00 0.00 73 1018.3
20260831171506 83 259 0.0 1.0 0.00 0.00 0.00 73 1018.4
20260831171402 84 289 0.0 1.0 0.00 0.00 0.00 73 1018.3
20260831171259 84 279 0.0 2.0 0.00 0.00 0.00 73 1018.4
20260831171154 84 281 0.0 2.0 0.00 0.00 0.00 72 1018.4
20260831171052 84 156 0.0 2.0 0.00 0.00 0.00 71 1018.4
20260831170947 85 259 0.0 2.0 0.00 0.00 0.00 71 1018.3
20260831170844 85 268 0.0 2.0 0.00 0.00 0.00 70 1018.3
20260831170740 85 72 0.0 2.0 0.00 0.00 0.00 70 1018.3
20260831170632 85 69 0.0 2.0 0.00 0.00 0.00 68 1018.3
20260831170525 85 164 0.0 2.0 0.00 0.00 0.00 67 1018.3
20260831170417 86 261 0.0 2.0 0.00 0.00 0.00 67 1018.3
20260831170314 86 22 0.0 2.0 0.00 0.00 0.00 68 1018.3
20260831165949 86 355 0.0 2.0 0.00 0.00 0.00 71 1018.4
20260831165845 86 27 0.0 2.0 0.00 0.00 0.00 69 1018.4
20260831165305 86 165 0.0 2.0 0.00 0.00 0.00 69 1018.4
20260831165157 86 348 0.0 2.0 0.00 0.00 0.00 71 1018.5
20260831165053 86 228 0.0 2.0 0.00 0.00 0.00 72 1018.5
20260831164725 86 121 0.0 2.0 0.00 0.00 0.00 69 1018.5
20260831164620 87 132 0.0 2.0 0.00 0.00 0.00 68 1018.5
20260831164513 87 90 0.0 2.0 0.00 0.00 0.00 70 1018.5
20260831164407 86 31 0.0 2.0 0.00 0.00 0.00 72 1018.6
20260831164302 86 11 0.0 2.0 0.00 0.00 0.00 71 1018.7
20260831163935 86 151 0.0 2.0 0.00 0.00 0.00 72 1018.7
20260831163828 85 246 0.0 2.0 0.00 0.00 0.00 72 1018.7
20260831163722 85 64 0.0 2.0 0.00 0.00 0.00 72 1018.7
20260831163619 85 102 0.0 2.0 0.00 0.00 0.00 72 1018.8
20260831163511 85 102 0.0 2.0 0.00 0.00 0.00 73 1018.8
20260831163407 84 209 0.0 2.0 0.00 0.00 0.00 73 1018.8
20260831163301 85 231 0.0 3.0 0.00 0.00 0.00 73 1018.9
20260831163159 84 112 0.0 3.0 0.00 0.00 0.00 74 1018.9